This is the latest recevied weather packets stored in our database for station/object F5NTS. If no packets are shown the sender has not sent any weather packets the latest 10 day(s).
| Time | Temp. | Humidity | Pressure | Rain* | Wind** | Luminosity | Snow |
|---|---|---|---|---|---|---|---|
| 1778066104 | 11.11° C | 92% | 1006.3 hPa | 0 mm | - | - | - |
| 1778064604 | 10.56° C | 91% | 1006.5 hPa | 0 mm | - | - | - |
| 1778060704 | 11.11° C | 85% | 1006.1 hPa | 0 mm | - | - | - |
| 1778058905 | 11.11° C | 85% | 1005.9 hPa | 0 mm | - | - | - |
| 1778057104 | 11.11° C | 86% | 1005.6 hPa | 0 mm | - | - | - |
| 1778053804 | 10.56° C | 88% | 1005.4 hPa | 0 mm | - | - | - |
| 1778052904 | 10.56° C | 88% | 1005.5 hPa | 0 mm | - | - | - |
| 1778052304 | 10° C | 88% | 1005.2 hPa | 0 mm | - | - | - |
| 1778051405 | 10° C | 89% | 1005.2 hPa | 0 mm | - | - | - |
| 1778050204 | 9.44° C | 89% | 1005.1 hPa | 0 mm | - | - | - |
| 1778044805 | 8.33° C | 92% | 1005.2 hPa | 0 mm | - | - | - |
| 1778042704 | 8.33° C | 93% | 1004.8 hPa | 0 mm | - | - | - |
| 1778030704 | 9.44° C | 95% | 1004.8 hPa | 1.02 mm | - | - | - |
| 1778030405 | 9.44° C | 95% | 1004.8 hPa | 1.02 mm | - | - | - |
| 1778028904 | 9.44° C | 95% | 1004.9 hPa | 1.02 mm | - | - | - |
| 1778027104 | 10° C | 95% | 1005 hPa | 1.02 mm | - | - | - |
| 1778022904 | 10.56° C | 95% | 1005.2 hPa | 1.02 mm | - | - | - |
| 1778020804 | 10.56° C | 94% | 1005.3 hPa | 0 mm | - | - | - |
| 1778019004 | 11.11° C | 93% | 1005.5 hPa | 0 mm | - | - | - |
| 1778015405 | 11.67° C | 92% | 1005.5 hPa | 0 mm | - | - | - |
| 1778013605 | 11.67° C | 93% | 1005.4 hPa | 0 mm | - | - | - |
| 1778012105 | 11.67° C | 93% | 1005.4 hPa | 0 mm | - | - | - |
| 1778011204 | 11.67° C | 93% | 1005.3 hPa | 0 mm | - | - | - |
| 1778010604 | 11.67° C | 93% | 1005 hPa | 0 mm | - | - | - |
| 1778005204 | 12.22° C | 92% | 1004.9 hPa | 0 mm | - | - | - |
* Rain latest hour (hover to see other rain measurements)
** Current wind speed in m/s (hover to see current wind gust speed)